This is the latest recevied weather packets stored in our database for station/object KC0OOO-WX. If no packets are shown the sender has not sent any weather packets the latest 10 day(s).
| Time | Temp. | Humidity | Pressure | Rain* | Wind** | Luminosity | Snow |
|---|---|---|---|---|---|---|---|
| 1778123053 | 4.44° C | 51% | 1020.7 hPa | 0 mm | - | - | - |
| 1778122453 | 5.56° C | 50% | 1020.7 hPa | 0 mm | - | - | - |
| 1778121853 | 6.11° C | 46% | 1020.3 hPa | 0 mm | - | - | - |
| 1778121253 | 6.67° C | 47% | 1020.3 hPa | 0 mm | - | - | - |
| 1778120653 | 6.67° C | 48% | 1020 hPa | 0 mm | - | - | - |
| 1778120053 | 7.22° C | 43% | 1020 hPa | 0 mm | - | - | - |
| 1778119453 | 7.78° C | 43% | 1019.3 hPa | 0 mm | - | - | - |
| 1778118853 | 8.33° C | 42% | 1019.3 hPa | 0 mm | - | - | - |
| 1778118253 | 8.89° C | 37% | 1019 hPa | 0 mm | - | - | - |
| 1778117653 | 9.44° C | 36% | 1019 hPa | 0 mm | - | - | - |
| 1778117023 | 9.44° C | 39% | 1018.6 hPa | 0 mm | - | - | - |
| 1778116423 | 10° C | 41% | 1018.6 hPa | 0 mm | - | - | - |
| 1778115823 | 10.56° C | 43% | 1018.6 hPa | 0 mm | - | - | - |
| 1778115223 | 10.56° C | 41% | 1018.3 hPa | 0 mm | - | - | - |
| 1778114623 | 11.11° C | 38% | 1017.9 hPa | 0 mm | - | - | - |
| 1778114023 | 11.11° C | 41% | 1017.9 hPa | 0 mm | - | - | - |
| 1778113423 | 11.11° C | 42% | 1017.9 hPa | 0 mm | - | - | - |
| 1778112823 | 10.56° C | 41% | 1017.9 hPa | 0 mm | - | - | - |
| 1778112223 | 11.11° C | 40% | 1017.9 hPa | 0 mm | - | - | - |
| 1778111623 | 10.56° C | 39% | 1017.6 hPa | 0 mm | - | - | - |
| 1778111023 | 12.22° C | 38% | 1017.3 hPa | 0 mm | - | - | - |
| 1778110422 | 11.67° C | 41% | 1017.3 hPa | 0 mm | - | - | - |
| 1778109823 | 12.78° C | 43% | 1016.9 hPa | 0 mm | - | - | - |
| 1778109193 | 10.56° C | 41% | 1016.9 hPa | 0 mm | - | - | - |
| 1778108593 | 10.56° C | 44% | 1016.9 hPa | 0 mm | - | - | - |
* Rain latest hour (hover to see other rain measurements)
** Current wind speed in m/s (hover to see current wind gust speed)